リニア彗星

C/2002 Q3 ( LINEAR )

English version
Home page
Updated on September 28, 2002

---------------------------------------------------------------------

・ プロフィール

発見日 2002年8月26日
発見光度 19.3等
発見者 Lincoln Laboratory Near-Earth Asteroid Research project

・ 軌道要素

T 2002 Aug. 19.0906 TT                                  MPC
q   1.306213             (2000.0)            P               Q
                   Peri.  125.7626      +0.5684280      +0.6996723
                   Node   154.1517      -0.4737862      -0.1517288
e   1.0            Incl.   96.8949      +0.6726190      -0.6981669
>From 77 observations 2002 Aug. 26-Sept. 13.

・ 星図

・ 光度変化

        m1 = 13.7 + 5 logΔ + 10.0 log r

---------------------------------------------------------------------

軌道要素はM.P.E.C. 2002-S12に掲載されたものです。
星図は StellaNavigator Ver.2.0 for Windows (アストロアーツ 編著 / アスキー出版局刊) で作成したものです。
光度グラフはComet for Windowsで作成したものです。

---------------------------------------------------------------------

Copyright(C) Seiichi Yoshida (comet@aerith.net). All rights reserved.